Preview of NWS' New Version of Forecast
This preview is not operational and should not be used for support decisions.
Latest weather observations around

Kenai, Kenai Municipal Airport (PAEN)

Using English Units (Switch to International System of Units)
Date/ Time (AKDT) Wind (mph) Vis. (mi) Weather Sky Cond. Temp (°F) Rel. Humidity Wind Chill (°F) Heat Index (°F) Pressure Precip. (in)
Air Dwpt 6 hour Altimeter (inHg) Sea level (inHg) 1 hr 3 hr 6 hr
Max Min
Jul 21 20:53 SSW 10 10 Clear CLR 61 55     81%     30.08 30.08      
Jul 21 19:53 SW 9 10 Clear CLR 64 55     73%     30.09 30.09      
Jul 21 18:53 SW 7 10 Clear CLR 68 53     59%     30.09 30.09      
Jul 21 17:53 WSW 9 10 Clear CLR 71 53     53%   70 30.09 30.09      
Jul 21 16:53 WNW 8 10 Clear CLR 71 53     53%   70 30.1 30.1      
Jul 21 15:53 W 8 10 Clear CLR 71 52     51%   70 30.1 30.11      
Jul 21 14:53 WSW 8 10 Clear CLR 70 52     53%     30.11 30.12      
Jul 21 13:53 WSW 7 10 Clear CLR 70 53     55%     30.12 30.13      
Jul 21 12:53 SW 7 10 Clear CLR 69 54     59%     30.13 30.13      
Jul 21 11:53 WSW 8 10 Clear CLR 67 53     61%     30.13 30.14      
Jul 21 10:53 WNW 5 10 Clear CLR 66 54     65%     30.14 30.14      
Jul 21 09:53 Calm 10 Clear CLR 63 55     75%     30.14 30.14      
Jul 21 08:53 Calm 10 Clear CLR 57 54     89%     30.14 30.15      
Jul 21 08:09 Calm 3 Clear CLR 52 50     93%     30.14        
Jul 21 07:53 Calm 3 Fog/Mist VV002 49 47     93%     30.14 30.14      
Jul 21 06:53 Calm 1 Fog/Mist VV002 46 44     93%     30.14 30.14      
Jul 21 06:41 Calm 1 Fog/Mist VV002 46 45     96%     30.14        
Jul 21 06:15 Calm 2 Fog/Mist VV002 46 45     96%     30.14        
Jul 21 05:53 Calm 3 Mostly Clear FEW003 47 45     93%     30.14 30.14      
Jul 21 05:20 Calm 0.25 Fog VV002 46 44     93%     30.13        
Notice The following observation data may not be complete
Jul 21 04:53 Calm 0.5 Fog VV002   42      %     30.13 30.14      
Jul 21 04:39 NNE 3 0.25 Fog VV002 44 42     93% 43   30.13        
Jul 21 04:32 NNE 3 0.5 Fog VV002 44 42     93% 43   30.13        
Jul 21 04:14 N 3 0.25 Fog VV002 45 44     97% 44   30.13        
Jul 21 04:02 Calm 0.75 Fog/Mist VV003 44 42     93%     30.13        
Jul 21 04:00 Calm 1.25 Fog/Mist FEW003 44 43     96%     30.13        
Jul 21 03:53 Calm 0.75 Fog/Mist VV003 46 45     96%     30.13 30.13      
Jul 21 03:36 Calm 0.75 Fog/Mist VV003 48 45     89%     30.13        
Jul 21 03:34 Calm 1.25 Fog/Mist FEW003 48 46     93%     30.13        
Jul 21 03:20 Calm 10 Mostly Clear FEW003 46 44     93%     30.13        
Jul 21 03:13 Calm 3 Fog/Mist CLR 46 44     93%     30.13        
Jul 21 03:09 Calm 1 Fog/Mist CLR 47 45     93%     30.13        
Jul 21 03:01 Calm 0.75 Fog/Mist VV003 47 45     93%     30.13        
Jul 21 02:56 Calm 1.25 Fog/Mist FEW003 46 44     93%     30.13        
Jul 21 02:53 Calm 0.75 Fog/Mist VV003 46 45     96%     30.13 30.13      
Jul 21 02:41 Calm 0.25 Fog VV003 48 46     93%     30.13        
Jul 21 02:32 Calm 0.5 Fog VV003 49 47     93%     30.13        
Jul 21 02:29 Calm 1.5 Fog/Mist CLR 50 48     93%     30.13        
Jul 21 02:04 ESE 3 10 Partly Cloudy SCT003 51 48     89%     30.13        
Jul 21 01:57 ESE 5 1.75 Fog/Mist SCT003 49 46     90% 47   30.13        
Jul 21 01:53 Calm 0.5 Fog VV003 48 46     93%     30.13 30.13      
Jul 21 01:46 NE 3 0.25 Fog VV003 48 46     93% 47   30.13        
Jul 21 01:37 Calm 0.75 Fog/Mist VV004 49 46     90%     30.13        
Jul 21 01:33 Calm 3 Fog/Mist CLR 49 46     90%     30.13        
Jul 21 01:24 Calm 0.75 Fog/Mist CLR 50 48     93%     30.13        
Jul 21 01:05 Calm 10 Clear CLR 54 51     90%     30.12        
Jul 21 00:53 Calm 2.5 Fog/Mist CLR 53 51     93%     30.12 30.12      
Jul 20 23:53 Calm 10 Clear CLR 56 53     90%     30.12 30.12      
Jul 20 22:53 SW 6 10 Clear CLR 57 52     83%     30.11 30.11      
Jul 20 21:53 SW 7 10 Mostly Clear FEW033 59 53     81%     30.1 30.11      
Jul 20 20:53 SSW 7 10 Clear CLR 60 54     80%     30.11 30.11      
Jul 20 19:53 SW 10 10 Clear CLR 61 54     78%     30.11 30.11      
Jul 20 18:53 SSW 13 10 Partly Cloudy SCT055 62 54     75%     30.11 30.11      
Jul 20 17:53 SW 13 10 Cloudy OVC050 62 55     78%     30.11 30.11      
Jul 20 16:53 SSW 14 10 Cloudy OVC050 62 54     75%     30.11 30.11      
Jul 20 15:53 SW 14 10 Partly Cloudy SCT050 62 54     75%     30.12 30.12      
Jul 20 14:53 SW 14 10 Clear CLR 63 54     72%     30.12 30.12      
Jul 20 13:53 SW 11 10 Clear CLR 63 54     72%     30.11 30.12      
Jul 20 12:53 SW 10 10 Mostly Clear FEW007 61 54     78%     30.12 30.12      
Jul 20 12:48 WSW 10 10 Partly Cloudy SCT007 61 54     77%     30.12        
Jul 20 11:53 SSW 8 7 Cloudy OVC005 57 54     89%     30.12 30.12      
Jul 20 11:50 SSW 9 7 Cloudy OVC005 57 54     88%     30.12        
Jul 20 10:53 SSW 9 7 Cloudy OVC003 56 54     93%     30.12 30.12      
Jul 20 10:00 SSW 11 2 Fog/Mist OVC002 56 54     93%     30.11        
Jul 20 09:53 S 11 1 Fog/Mist OVC002 56 53     90%     30.11 30.12      
Jul 20 09:23 SSW 11 1 Clear   56 53     90%     30.11        
Jul 20 08:53 S 10 0.5 Clear   56 54     93%     30.1 30.11      
Jul 20 07:53 SSW 11 2 Fog/Mist OVC002 56 53     90%     30.1 30.1      
Jul 20 07:45 SSW 10 1 Fog/Mist OVC002 56 54     93%     30.09        
Jul 20 07:06 SW 14 2 Fog/Mist OVC003 56 54     93%     30.09        
Jul 20 06:53 SSW 11 3 Fog/Mist OVC003 56 53     90%     30.08 30.09      
Jul 20 06:25 SSW 11 4 Smoke OVC004 56 53     90%     30.08        
Jul 20 05:53 SSW 11 6 Smoke BKN006 OVC065 56 53     90%     30.07 30.08      
Jul 20 05:45 SSW 11 6 Smoke FEW006 OVC065 56 53     90%     30.07        
Jul 20 04:53 SW 8 10 Smoke OVC065 57 53     87%     30.06 30.06      
Jul 20 03:53 SE 5 10 Smoke CLR 58 50     75%     30.05 30.05      
Jul 20 02:53 SSE 8 10 Smoke CLR 60 51     72%     30.05 30.05      
Jul 20 01:53 S 8 10 Smoke CLR 61 51     70%     30.04 30.05      
Jul 20 00:53 S 10 10 Smoke CLR 63 51     65%     30.03 30.03      
Jul 19 23:53 S 13 10 Smoke CLR 64 51     63%     30.02 30.02      
Jul 19 22:53 S 13 8 Smoke CLR 63 52     67%     30 30      
Jul 19 21:53 SSW 15 8 Smoke CLR 62 53     72%     29.97 29.97      
Jul 19 20:53 SSW 18 7 Smoke CLR 63 53     70%     29.96 29.97      
Jul 19 19:53 SSW 17 9 Smoke CLR 67 52     59%     29.96 29.96      
Jul 19 18:53   9 Smoke CLR 67 52     59%     29.95 29.96      
Jul 19 17:53   8 Smoke CLR 65 53     65%     29.96 29.97      
Jul 19 16:53   9 Smoke FEW090 66 52     61%     29.96 29.96      
Jul 19 15:53   7 Smoke CLR 68 52     57%     29.96 29.96      
Jul 19 14:53   9 Smoke CLR 67 53     61%     29.96 29.96      
Jul 19 13:53   9 Smoke CLR 67 53     61%     29.96 29.96      
Jul 19 12:53 W 11 8 Smoke CLR 69 53     57%     29.95 29.96      
Jul 19 11:53 WSW 7 10 Smoke CLR 69 52     54%     29.95 29.95      
Jul 19 10:53 WNW 5 10 Smoke CLR 66 54     65%     29.94 29.94      
Jul 19 09:53 Calm 8 Smoke CLR 61 54     78%     29.94 29.94      
Jul 19 08:53 Calm 10 Clear CLR 56 54     93%     29.93 29.93      
Jul 19 07:53 Calm 4 Fog/Mist and Smoke CLR 51 49     92%     29.92 29.93      
Jul 19 07:07 E 3 4 Clear CLR 50 48     93%     29.91        
Jul 19 07:00 Calm 1.25 Cloudy OVC004 49 47     93%     29.91        
Jul 19 06:53 Calm 4 Clear CLR 50 49     96%     29.91 29.91      
Jul 19 05:53 Calm 4 Fog CLR 50 48     93%     29.9 29.9      
Jul 19 05:44 Calm 4 Fog CLR 49 48     97%     29.9        
Jul 19 05:26 Calm 0.25 Fog VV006 49 48     97%     29.89        
Jul 19 05:17 Calm 0.75 Fog/Mist VV005 50 47     89%     29.89        
Jul 19 05:12 Calm 5 Fog/Mist SCT005 50 48     93%     29.89        
Jul 19 05:03 Calm 6 Fog/Mist BKN005 50 48     93%     29.89        
Jul 19 04:56 ENE 3 2.5 Fog/Mist BKN005 49 47     93% 48   29.89        
Jul 19 04:53 ENE 5 0.75 Fog/Mist VV005 49 47     93% 47   29.89 29.89      
Jul 19 04:42 NE 5 0.25 Fog VV006 48 46     93% 46   29.89        
Jul 19 04:27 N 3 0.75 Fog/Mist VV006 49 47     93% 48   29.88        
Jul 19 04:23 N 3 1.5 Fog/Mist FEW006 49 46     90% 48   29.88        
Jul 19 03:53 Calm 10 Clear CLR 54 49     83%     29.88 29.88      
Jul 19 03:31 Calm 5 Fog/Mist FEW005 53 50     89%     29.87        
Jul 19 03:28 Calm 1.25 Fog/Mist FEW005 53 50     89%     29.87        
Jul 19 03:09 Calm 0.75 Fog/Mist VV005 53 51     93%     29.87        
Jul 19 03:05 Calm 1.5 Fog/Mist FEW005 54 51     90%     29.87        
Jul 19 02:53 Calm 8 Clear CLR 55 52     89%     29.86 29.87      
Jul 19 01:53 Calm 10 Clear CLR 60 51     72%     29.86 29.86      
Jul 19 00:53 S 6 10 Clear CLR 62 52     70%     29.84 29.84      
Jul 18 23:53 SSE 9 10 Clear CLR 64 52     65%     29.83 29.83      
Jul 18 22:53 S 8 10 Clear CLR 65 51     61%     29.82 29.82      
Jul 18 21:53 SSW 10 10 Clear CLR 63 52     67%     29.81 29.81      
Jul 18 20:53 SSW 9 10 Clear CLR 64 52     65%     29.8 29.8      
Jul 18 19:53 SSW 9 10 Clear CLR 65 52     63%     29.8 29.8      
Jul 18 18:53 SSW 11 10 Clear CLR 66 53     63%     29.8 29.8      
Jul 18 17:53 SSW 9 10 Clear CLR 66 55     68%     29.8 29.8      
Jul 18 16:53 SSW 10 10 Clear CLR 69 54     59%     29.79 29.8      
Jul 18 15:53 WSW 8 10 Clear CLR 69 53     57%     29.79 29.8      
Jul 18 14:53 SW 9 10 Clear CLR 71 54     55%   70 29.79 29.79      
Jul 18 13:53 WSW 8 10 Clear CLR 72 54     53%   71 29.79 29.79      
Jul 18 12:53 WSW 8 10 Clear CLR 71 55     57%   71 29.79 29.79      
Jul 18 11:53 SW 7 10 Clear CLR 68 55     63%     29.78 29.78      
Jul 18 10:53 3 10 Clear CLR 71 53     53%   70 29.77 29.78      
Jul 18 09:53 Calm 10 Clear CLR 66 53     63%     29.78 29.78      
Jul 18 08:53 Calm 10 Clear CLR 60 53     78%     29.77 29.78      
Jul 18 07:53 SSW 6 10 Clear CLR 59 53     81%     29.76 29.76      
Jul 18 05:53 SW 5 10 Clear CLR 56 52     87%     29.74 29.74      
Jul 18 04:53 SSW 5 10 Clear CLR 51 48     89%     29.72 29.72      
Jul 18 03:53 SSE 3 10 Clear CLR 50 45     83%     29.71 29.72      
Jul 18 02:53 Calm 10 Clear CLR 50 47     89%     29.7 29.71      
Jul 18 01:53 Calm 10 Clear CLR 58 50     75%     29.69 29.7      
Jul 18 00:53 SSW 6 10 Clear CLR 58 51     78%     29.68 29.68      
Jul 17 23:53 S 3 10 Clear CLR 59 52     78%     29.68 29.68      
Jul 17 22:53 S 5 10 Clear CLR 60 51     72%     29.66 29.66      
Jul 17 21:53 SSW 8 10 Clear CLR 61 50     67%     29.65 29.65      
Jul 17 20:53 SSW 11 10 Clear CLR 62 51     67%     29.64 29.65      
Jul 17 19:53 SW 9 10 Clear CLR 64 51     63%     29.64 29.64      
Jul 17 18:53 SW 10 10 Clear CLR 66 51     59%     29.64 29.64      
Jul 17 17:53 SW 9 10 Clear CLR 65 52     63%     29.64 29.64      
Jul 17 16:53 SSW 10 10 Clear CLR 65 52     63%     29.63 29.63      
Jul 17 15:53 SW 9 10 Clear CLR 68 51     55%     29.63 29.63      
Jul 17 14:53 WSW 7 10 Clear CLR 67 51     57%     29.63 29.64      
Jul 17 13:53 SW 8 10 Clear CLR 65 51     61%     29.64 29.65      
Jul 17 12:53 WSW 8 10 Clear CLR 63 51     65%     29.64 29.65      
Jul 17 11:53 SW 7 10 Clear CLR 61 50     67%     29.64 29.65      
Jul 17 10:53 SSW 8 10 Clear CLR 60 50     69%     29.64 29.64      
Jul 17 09:53 SSW 10 10 Partly Cloudy SCT050 59 50     72%     29.64 29.64 0   0
Jul 17 08:53 S 6 10 Partly Cloudy SCT040 58 51     78%     29.64 29.64      
Jul 17 07:53 SSE 5 10 Mostly Clear FEW080 55 50     83%     29.64 29.64      
Jul 17 06:53 SW 3 10 Mostly Clear FEW075 52 50     93%     29.63 29.63      
Jul 17 05:53 SSE 6 10 Mostly Clear FEW070 52 49     89%     29.63 29.63      
Jul 17 04:53 S 6 10 Mostly Clear FEW060 53 50     89%     29.63 29.63      
Jul 17 03:53 SW 8 10 Clear CLR 54 50     86%     29.62 29.63      
Jul 17 02:53 SW 10 10 Clear CLR 55 50     83%     29.62 29.62      
Jul 17 01:53 S 7 10 Clear CLR 54 50     86%     29.62 29.62      
Jul 17 00:53 SSW 8 10 Clear CLR 55 51     86%     29.61 29.61      
Jul 16 23:53 S 7 10 Clear CLR 58 51     78%     29.61 29.61      
Jul 16 22:53 S 8 10 Clear CLR 59 49     69%     29.6 29.6      
Jul 16 21:53 SSW 16 10 Clear   58 51     78%     29.58 29.59      
Jul 16 21:05   10 Clear CLR 59 51     75%     29.58        
Jul 16 20:53   10 Clear CLR 60 52     75%     29.58 29.58      
Jul 16 19:53 NNE 8 10 Clear CLR 72 47     41%   71 29.57 29.57      
Jul 16 18:53 NNE 10 10 Mostly Clear FEW120 71 46     41%   70 29.57 29.57      
Jul 16 17:53 N 15 10 Mostly Cloudy BKN110 70 47     44%     29.58 29.58      
Jul 16 14:53 NNE 11 10 Partly Cloudy SCT110 69 48     47%     29.62 29.62      
Jul 16 13:53 N 14 10 Partly Cloudy FEW055 FEW075 SCT095 66 49     54%     29.64 29.64 0    
Jul 16 12:53 NNW 13 10 Mostly Cloudy FEW026 SCT046 BKN090 65 52     63%     29.65 29.65 0 0  
Jul 16 11:53 N 11 10 Mostly Cloudy SCT026 BKN036 66 52     61%     29.67 29.67      
Jul 16 11:49 N 10 10 Mostly Cloudy BKN026 BKN036 64 52     64%     29.67        
Jul 16 10:53 NE 9 10 Partly Cloudy FEW030 SCT065 62 50     65%     29.68 29.69      
Jul 16 09:53 N 6 10 Cloudy OVC070 61 53     75%     29.69 29.7     0
Jul 16 08:53 NE 6 10 Cloudy OVC065 59 52     78%     29.71 29.71 0    
Jul 16 07:53 Calm 10 Light Rain BKN080 55 52     89%     29.71 29.72 0    
Jul 16 06:53 Calm 10 Mostly Cloudy BKN075 52 48     86%     29.72 29.72   0  
Jul 16 05:53 ENE 5 10 Cloudy FEW050 OVC070 52 49     89%     29.73 29.73 0    
Jul 16 04:53 NE 5 10 Cloudy OVC075 51 48     89%     29.74 29.74      
Jul 16 03:53 Calm 10 Cloudy OVC085 54 49     83%     29.74 29.74     0
Jul 16 02:53 SSW 6 10 Cloudy OVC100 54 48     80%     29.75 29.75 0    
Jul 16 01:53 E 3 10 Light Rain OVC080 56 48     75%     29.76 29.76 0    
Jul 16 00:53 ESE 6 10 Light Rain SCT085 OVC110 57 48     72%     29.75 29.75 0 0  
Jul 15 23:53 E 3 10 Cloudy OVC095 59 46     62%     29.74 29.75      
Jul 15 22:53 E 6 10 Cloudy SCT080 OVC100 60 46     60%     29.74 29.74      
Jul 15 21:53 E 6 10 Mostly Cloudy BKN090 62 46     56%     29.73 29.73     0
Jul 15 20:53 ESE 9 10 Clear   64 47     54%     29.72 29.72      
Jul 15 19:53 E 8 10 Cloudy OVC100 64 48     56%     29.73 29.73 0    
Jul 15 18:53 ESE 6 10 Light Rain OVC090 64 50     60%     29.73 29.73 0 0  
Jul 15 17:53 WSW 3 10 Mostly Clear FEW085 66 51     59%     29.73 29.73      
Jul 15 16:53 ESE 8 10 Mostly Cloudy BKN110 67 49     52%     29.73 29.73      
Jul 15 15:53 ESE 7 10 Cloudy OVC090 65 50     58%     29.74 29.74 0   0
Jul 15 14:53 ESE 7 10 Cloudy OVC110 65 50     58%     29.74 29.74      
Jul 15 13:53 E 7 10 Mostly Cloudy SCT020 BKN100 67 51     57%     29.74 29.74 0    
Jul 15 12:53 ENE 14 10 Cloudy FEW040 OVC100 66 50     56%     29.74 29.74      
Jul 15 11:53 NNE 11 10 Clear CLR 64 55     73%     29.75 29.75      
Jul 15 10:53 NE 16 10 Clear CLR 62 54     75%     29.75 29.75      
Jul 15 09:53 N 11 10 Mostly Cloudy SCT065 BKN095 61 55     81%     29.76 29.76 0   0
Jul 15 08:53 NE 7 10 Light Rain FEW060 OVC075 59 54     83%     29.77 29.77 0    
Jul 15 07:53 NE 9 10 Cloudy BKN065 OVC085 58 53     84%     29.76 29.77      
Jul 15 06:53 NNE 8 10 Cloudy OVC065 56 53     90%     29.77 29.77   0  
Jul 15 05:53 NE 9 10 Cloudy OVC095 56 52     87%     29.77 29.78 0    
Jul 15 04:53 NNE 8 10 Light Rain OVC090 56 52     87%     29.79 29.79 0    
Jul 15 03:53 NNE 11 10 Light Rain OVC080 56 52     87%     29.79 29.8 0   0
Jul 15 02:53 NE 10 10 Cloudy OVC075 57 51     81%     29.8 29.8      
Jul 15 01:53 NE 9 10 Cloudy OVC070 57 51     81%     29.81 29.81      
Jul 15 00:53 NNE 8 10 Cloudy SCT075 OVC100 57 52     83%     29.81 29.81      
Jul 14 23:53 NE 6 10 Cloudy OVC100 58 56     93%     29.82 29.82      
Jul 14 22:53 N 7 10 Mostly Cloudy BKN100 59 56     90%     29.82 29.82      
Jul 14 21:53 NNE 8 10 Cloudy FEW090 OVC110 61 57     87%     29.82 29.82 0   0
Jul 14 20:53 N 9 10 Cloudy OVC100 61 56     83%     29.82 29.82      
Jul 14 19:53 N 10 10 Cloudy OVC090 62 57     84%     29.83 29.83      
Jul 14 18:53 N 10 10 Cloudy FEW075 OVC095 62 57     84%     29.83 29.83 0 0  
Jul 14 17:53 NNE 13 10 Cloudy BKN080 OVC090 62 57     84%     29.84 29.84 0    
Jul 14 16:53 N 14 10 Light Rain FEW050 SCT060 OVC090 62 57     84%     29.84 29.85 0    
Jul 14 15:53 NNE 11 10 Light Rain BKN065 OVC085 62 57     84%     29.85 29.86 0   0
Jul 14 14:53 N 8 10 Light Rain BKN065 OVC085 62 57     84%     29.86 29.86 0    
Jul 14 13:53 N 7 10 Light Rain OVC080 61 56     83%     29.86 29.87 0    
Jul 14 12:53 NNE 9 10 Light Rain OVC090 61 55     81%     29.87 29.87 0 0  
Jul 14 11:53 N 14 10 Cloudy OVC080 61 55     81%     29.87 29.87      
Jul 14 10:53 N 9 10 Cloudy SCT080 OVC100 61 56     83%     29.87 29.88      
Jul 14 09:53 NNE 9 10 Cloudy FEW005 OVC075 59 56     90%     29.88 29.88 0   0
Jul 14 08:53 NNE 5 5 Light Rain and Fog/Mist SCT004 OVC070 57 55     93%     29.88 29.88 0    
Jul 14 07:53 NE 3 10 Cloudy OVC075 56 54     93%     29.88 29.89 0    
Jul 14 06:53 Calm 10 Light Rain FEW003 BKN090 OVC110 55 53     93%     29.88 29.88 0 0  
Jul 14 06:16 Calm 10 Cloudy FEW002 BKN075 OVC100 55 53     93%     29.88   0    
Jul 14 05:53 Calm 10 Cloudy BKN075 OVC110 55 53     93%     29.89 29.89 0    
Jul 14 05:01 Calm 6 Light Rain and Fog/Mist SCT004 BKN070 OVC085 56 53     90%     29.89   0    
Jul 14 04:53 Calm 5 Rain and Fog/Mist BKN004 BKN014 OVC070 56 54     93%     29.89 29.89 0    
Jul 14 03:53 SSW 7 10 Light Rain BKN004 OVC085 56 54     93%     29.9 29.9 0   0
Jul 14 03:30 SSW 8 10 Cloudy BKN004 OVC080 56 54     93%     29.9   0    
Jul 14 03:23 SSW 6 10 Light Rain BKN005 OVC080 56 54     93%     29.9   0    
Jul 14 03:00 SSW 7 10 Light Rain SCT005 OVC080 56 54     93%     29.9   0    
Jul 14 02:53 SSW 7 10 Light Rain BKN005 OVC085 56 54     93%     29.9 29.9 0    
Jul 14 02:32 SSW 9 10 Cloudy BKN005 BKN044 OVC090 56 53     90%     29.9        
Jul 14 02:05 SSW 8 10 Cloudy FEW005 OVC095 56 53     90%     29.9        
Jul 14 01:53 SSW 7 10 Cloudy FEW070 OVC095 56 53     90%     29.9 29.9      
Jul 14 00:53 SSW 8 10 Mostly Cloudy SCT100 BKN110 57 53     87%     29.89 29.89      
Jul 13 23:53 Calm 10 Cloudy FEW075 OVC085 57 53     87%     29.89 29.89      
Jul 13 22:53 S 6 10 Cloudy SCT046 BKN055 OVC075 58 53     84%     29.88 29.88      
Jul 13 21:53 NNW 6 10 Cloudy FEW036 BKN049 OVC065 61 54     78%     29.87 29.88      
Jul 13 20:53 W 6 10 Cloudy BKN036 OVC060 60 52     75%     29.87 29.88      
Jul 13 19:53 W 5 10 Cloudy BKN034 OVC070 63 54     72%     29.87 29.88      
Jul 13 18:53 NW 7 10 Mostly Cloudy FEW033 BKN075 64 54     70%     29.87 29.88      
Jul 13 17:53 WNW 6 10 Cloudy BKN037 OVC055 62 54     75%     29.88 29.88      
Jul 13 16:53 WNW 6 10 Cloudy FEW037 OVC055 62 53     72%     29.89 29.89      
Jul 13 16:03 W 7 10 Cloudy SCT027 SCT033 OVC060 64 54     70%     29.89        
Jul 13 15:53 NW 7 10 Cloudy BKN027 BKN032 OVC055 65 53     65%     29.89 29.9      
Jul 13 15:41 NW 5 10 Cloudy BKN027 OVC070 66 53     63%     29.9        
Jul 13 14:53 NW 8 10 Cloudy FEW020 OVC065 67 54     63%     29.9 29.91      
Jul 13 13:53 6 10 Cloudy FEW020 OVC065 65 55     70%     29.91 29.91      
Jul 13 12:53 WNW 6 10 Cloudy OVC055 62 53     72%     29.92 29.92      
Jul 13 11:53 WNW 6 10 Cloudy FEW019 SCT024 OVC050 62 54     75%     29.92 29.92      
Jul 13 10:53 Calm 10 Cloudy OVC055 64 52     65%     29.92 29.92      
Jul 13 09:53 N 3 10 Mostly Clear FEW100 61 52     72%     29.92 29.93      
Jul 13 08:53 Calm 10 Partly Cloudy SCT065 59 52     78%     29.92 29.93      
Jul 13 07:53 Calm 10 Partly Cloudy SCT033 56 52     87%     29.92 29.92      
Jul 13 06:53 Calm 10 Partly Cloudy SCT032 55 51     86%     29.92 29.92      
Jul 13 06:19 SSE 3 10 Cloudy OVC031 55 51     86%     29.92        
Jul 13 05:53 Calm 10 Cloudy OVC029 54 51     90%     29.92 29.92      
Jul 13 05:30 SSE 5 10 Mostly Cloudy BKN029 54 51     90%     29.92        
Jul 13 04:53 ENE 3 10 Cloudy BKN030 OVC050 55 51     86%     29.92 29.92      
Jul 13 03:53 SE 5 10 Cloudy FEW027 OVC044 56 51     84%     29.93 29.93      
Jul 13 01:53 S 6 10 Cloudy FEW008 OVC032 56 52     87%     29.94 29.94      
Jul 13 01:50 S 7 10 Cloudy SCT008 OVC033 55 52     88%     29.94        
Jul 13 01:18 SSW 8 10 Cloudy BKN008 OVC034 56 52     87%     29.94        
Jul 13 01:10 S 10 10 Cloudy SCT008 BKN013 OVC033 56 52     87%     29.94        
Jul 13 00:53 SSW 9 10 Cloudy BKN008 OVC013 56 52     87%     29.94 29.94      
Jul 13 00:43 S 11 10 Cloudy BKN008 OVC013 56 52     87%     29.94        
Jul 13 00:07 SSW 11 10 Cloudy BKN010 BKN014 OVC038 56 52     87%     29.94        
Jul 12 23:53 SSW 11 10 Cloudy FEW008 OVC038 56 52     87%     29.94 29.94      
Jul 12 23:24 SSW 13 10 Cloudy FEW009 SCT014 OVC036 56 52     87%     29.93        
Jul 12 23:04 SSW 10 10 Cloudy BKN013 OVC034 56 52     87%     29.93        
Jul 12 21:53 SSW 13 10 Cloudy OVC036 57 52     83%     29.92 29.93      
Jul 12 21:25 SSW 13 10 Cloudy FEW008 BKN038 OVC055 57 52     83%     29.92        
Jul 12 20:53 SSW 14 10 Cloudy BKN008 OVC050 57 52     83%     29.92 29.93      
Jul 12 19:53 SSW 13 10 Cloudy BKN007 OVC042 58 53     84%     29.91 29.92      
Jul 12 19:26 SSW 13 10 Mostly Cloudy FEW009 BKN038 58 53     84%     29.92        
Jul 12 18:53 SSW 15 10 Clear CLR 61 53     75%     29.92 29.92      
Jul 12 17:53 SW 11 10 Clear CLR 61 52     72%     29.92 29.93      
Jul 12 16:53 SSW 10 10 Clear CLR 61 53     75%     29.93 29.93      
Jul 12 15:53 SSW 9 10 Clear CLR 62 52     70%     29.94 29.95      
Jul 12 15:31 SSW 10 10 Mostly Clear FEW010 61 52     72%     29.95        
Jul 12 14:53 SW 10 10 Mostly Cloudy BKN011 BKN039 59 52     78%     29.95 29.96      
Jul 12 13:53 S 11 10 Cloudy OVC010 59 52     78%     29.96 29.96      
Jul 12 13:17 S 13 10 Mostly Cloudy SCT008 BKN010 59 52     78%     29.97        
Jul 12 12:53 S 11 10 Cloudy OVC006 58 53     84%     29.97 29.97      
Jul 12 11:53 SSW 11 10 Cloudy OVC005 57 53     87%     29.96 29.96      
Jul 12 10:53 SSW 11 10 Cloudy OVC005 56 53     90%     29.96 29.96      
Jul 12 10:41 SSW 11 10 Cloudy OVC005 56 53     90%     29.96        
Jul 12 09:53 SSW 10 10 Cloudy OVC004 55 52     89%     29.96 29.96      
Jul 12 08:53 SSW 11 10 Cloudy OVC004 56 52     87%     29.96 29.96      
Jul 12 07:56 S 14 10 Cloudy OVC004 56 52     87%     29.95        
Jul 12 07:53 S 15 10 Cloudy OVC005 56 52     87%     29.95 29.96      
Jul 12 06:53 S 13 10 Cloudy OVC005 56 53     90%     29.95 29.95      
Jul 12 05:53 SSW 13 10 Cloudy OVC003 54 52     93%     29.95 29.95      
Jul 12 04:53 SSW 11 5 Fog/Mist OVC002 54 52     93%     29.95 29.95      
Jul 12 04:23 SSW 13 6 Fog/Mist BKN002 OVC010 54 52     93%     29.94        
Jul 12 04:15 SSW 9 2.5 Fog/Mist OVC002 54 52     93%     29.95        
Jul 12 03:53 SSW 10 9 Cloudy OVC003 54 52     93%     29.94 29.95      
Jul 12 02:53 SSW 13 10 Cloudy OVC004 54 52     93%     29.95 29.95      
Jul 12 01:53 SSW 13 10 Cloudy OVC004 55 52     89%     29.94 29.94      
Jul 12 01:14 SSW 14 10 Cloudy OVC005 55 52     89%     29.94        
Jul 12 00:53 SSW 11 10 Cloudy OVC004 56 53     90%     29.94 29.95      
Jul 12 00:34 SSW 11 10 Cloudy BKN005 OVC050 56 53     90%     29.94        
Jul 12 00:13 SW 13 10 Cloudy FEW004 BKN050 OVC070 56 53     90%     29.93        
Jul 11 23:53 SW 14 10 Cloudy OVC049 56 53     90%     29.92 29.92      
Jul 11 22:53 SW 14 10 Mostly Cloudy FEW043 FEW050 BKN070 56 53     90%     29.91 29.92      
Jul 11 22:27 SSW 14 10 Cloudy SCT006 OVC042 56 53     90%     29.91        
Jul 11 21:53 SSW 14 10 Cloudy OVC007 57 53     87%     29.91 29.92      
Jul 11 20:53 SSW 15 10 Cloudy OVC006 57 52     83%     29.92 29.92      
Jul 11 19:53 SSW 14 10 Cloudy BKN008 BKN033 OVC050 57 52     83%     29.92 29.92      
Jul 11 19:25 SSW 11 10 Cloudy SCT007 OVC032 57 52     83%     29.92        
Jul 11 19:01 SSW 9 10 Cloudy BKN008 BKN027 OVC032 58 53     84%     29.92        
Jul 11 18:53 SSW 9 10 Cloudy SCT008 BKN025 OVC030 58 53     84%     29.92 29.92      
Jul 11 18:44 S 13 10 Cloudy FEW010 SCT025 OVC030 58 53     84%     29.92        
Jul 11 18:18 SSW 8 10 Cloudy SCT006 BKN022 OVC029 58 53     84%     29.92        
Jul 11 17:53 SSW 8 10 Cloudy BKN008 OVC022 58 53     84%     29.92 29.93      
Jul 11 16:53 WSW 7 10 Cloudy OVC007 58 53     84%     29.93 29.93      
Jul 11 15:53 SW 7 10 Cloudy OVC005 57 53     87%     29.93 29.93      
Jul 11 14:53 SW 6 10 Cloudy OVC007 58 54     87%     29.93 29.93      
Jul 11 13:53 WSW 3 10 Cloudy OVC006 58 54     87%     29.93 29.93      
Jul 11 11:53 WSW 5 7 Cloudy OVC005 57 54     89%     29.93 29.93      
Jul 11 11:43 WSW 5 7 Cloudy OVC005 57 56     96%     29.93        
Jul 11 11:35 W 6 1.75 Fog/Mist OVC005 56 56     100%     29.92        
Jul 11 10:41 WSW 5 6 Fog/Mist OVC004 57 56     96%     29.92        
Jul 11 09:53 WSW 7 1.5 Fog/Mist OVC003 56 55     97%     29.91 29.92      
Jul 11 08:53 WSW 7 1.5 Fog/Mist OVC004 56 54     93%     29.91 29.91      
Jul 11 08:45 SW 7 1.75 Fog/Mist OVC004 56 54     93%     29.91        
Jul 11 07:53 SW 6 6 Fog/Mist OVC005 56 53     90%     29.9 29.9      
Jul 11 06:38 SW 7 9 Cloudy OVC005 56 54     93%     29.9        
Jul 11 05:53 W 3 6 Fog/Mist OVC003 55 53     93%     29.9 29.91      
Jul 11 04:53 SW 5 8 Cloudy OVC004 55 53     93%     29.9 29.91      
Jul 11 04:27 SW 6 10 Cloudy OVC004 55 53     93%     29.9        
Jul 11 04:17 SW 8 10 Cloudy OVC005 55 53     93%     29.9        
Jul 11 03:46 SW 8 10 Cloudy OVC004 55 52     89%     29.9        
Jul 11 02:53 SSW 14 10 Cloudy OVC007 55 52     89%     29.9 29.91      
Jul 11 01:53 SW 8 10 Cloudy OVC011 57 52     83%     29.9 29.9      
Jul 11 00:53 WSW 8 10 Cloudy SCT014 OVC020 56 52     87%     29.9 29.9      
Jul 11 00:27 SW 6 10 Cloudy SCT003 BKN012 OVC021 55 52     89%     29.89        
Jul 10 23:53 SW 10 10 Cloudy OVC003 55 52     89%     29.89 29.9      
Jul 10 23:36 SW 11 10 Cloudy OVC004 54 52     93%     29.89        
Jul 10 22:53 SW 10 10 Partly Cloudy SCT008 56 52     87%     29.89 29.89      
Jul 10 22:45 SW 9 10 Mostly Clear FEW008 56 52     87%     29.89        
Jul 10 21:53 SW 9 10 Clear CLR 57 51     81%     29.87 29.88      
Jul 10 20:53 SSW 10 10 Mostly Clear FEW009 58 52     81%     29.88 29.88      
Jul 10 20:02 SW 10 10 Partly Cloudy SCT017 58 52     81%     29.88        
Jul 10 19:53 SW 11 10 Mostly Cloudy FEW010 BKN016 59 52     78%     29.88 29.88      
Jul 10 19:45 WSW 11 10 Mostly Cloudy SCT010 BKN016 59 52     78%     29.88        
Jul 10 18:09 SSW 13 10 Mostly Cloudy BKN013 61 53     75%     29.89        
Jul 10 17:53 SW 10 10 Mostly Clear FEW011 61 53     75%     29.9 29.9      
Jul 10 16:53 SW 13 10 Clear CLR 62 53     72%     29.91 29.91      
Jul 10 14:53 SW 13 10 Mostly Clear FEW012 61 52     72%     29.93 29.93      
Jul 10 12:53 SSW 10 10 Cloudy OVC013 60 52     75%     29.95 29.95      
Jul 10 11:53 SSW 11 10 Cloudy SCT009 OVC012 58 53     84%     29.95 29.96      
Jul 10 11:13 SSW 13 10 Cloudy SCT007 OVC012 57 52     83%     29.95        
Jul 10 08:53 SSW 13 7 Clear   56 53     90%     29.95 29.96      
Jul 10 07:53 SSW 13 5 Fog/Mist OVC003 55 53     93%     29.95 29.95      
Jul 10 06:53 SSW 15 10 Cloudy OVC003 55 53     93%     29.94 29.95      
Jul 10 05:53 SSW 16 5 Fog/Mist OVC003 55 53     93%     29.94 29.94      
Jul 10 04:53 SSW 15 9 Cloudy OVC003 55 53     93%     29.94 29.94      
Jul 10 03:53 SSW 17 8 Cloudy OVC002 55 53     93%     29.94 29.94      
Jul 10 02:53 SSW 18 6 Fog/Mist OVC002 55 53     93%     29.94 29.94      
Jul 10 01:53 SSW 21 6 Fog/Mist OVC002 54 52     93%     29.93 29.93      
Jul 10 00:53   2.5 Fog/Mist OVC002 54 53     97%     29.93 29.93      
Jul 10 00:43   2.5 Fog/Mist OVC002 54 52     93%     29.93        
Jul 10 00:01   3 Fog/Mist OVC002 54 52     93%     29.93        
Jul 09 23:53   2.5 Fog/Mist OVC002 54 52     93%     29.93 29.93      
Jul 09 22:53   1.25 Fog/Mist OVC002 54 52     93%     29.92 29.92      
Jul 09 22:48 SSW 20 1.25 Fog/Mist OVC002 55 54     94%     29.92        
Jul 09 22:36   2 Fog/Mist OVC002 55 52     89%     29.91        
Jul 09 21:53   5 Fog/Mist OVC002 55 53     93%     29.91 29.91      
Jul 09 20:53 SSW 18 2 Fog/Mist OVC003 56 53     90%     29.91 29.91      
Jul 09 19:53 SSW 16 10 Cloudy OVC004 57 53     87%     29.91 29.91      
Jul 09 19:37 SSW 17 10 Cloudy OVC004 57 53     87%     29.91        
Jul 09 17:53 SSW 14 10 Cloudy OVC005 58 54     87%     29.91 29.92      
Jul 09 17:23 SSW 14 10 Mostly Cloudy BKN005 59 53     81%     29.91        
Jul 09 16:53 SW 10 10 Mostly Clear FEW005 60 54     80%     29.92 29.92      
Jul 09 16:43 SSW 13 10 Mostly Clear FEW005 60 54     80%     29.92        
Jul 09 15:53 SSW 10 10 Clear CLR 61 54     78%     29.92 29.92      
Jul 09 14:53 SSW 13 10 Clear CLR 62 54     75%     29.92 29.92      
Jul 09 13:53 SSW 10 10 Clear CLR 64 55     73%     29.93 29.93      
Jul 09 11:53   10 Clear CLR 64 55     73%     29.92 29.92      
May 14 13:53 SSW 14 10 Partly Cloudy SCT090 49 37     63% 44   29.88 29.89      
May 14 02:53 S 8 10 Cloudy OVC110 42 33     70% 37   29.77 29.78      
May 13 11:53 N 15 10 Mostly Clear FEW030 48 34     58% 42   29.88 29.89      
May 13 08:53 NNE 13 10 Clear CLR 40 37     89% 32   29.98 29.99      
May 13 01:12 N 3 10 Clear CLR 36 36     100% 33   30.14        
May 11 19:53 SSE 15 10 Mostly Cloudy BKN085 49 32     52% 43   29.94 29.95      
May 11 16:53 S 17 10 Mostly Cloudy FEW050 SCT080 BKN095 51 31     46%     29.9 29.9      
May 11 14:53 SW 10 10 Cloudy BKN050 OVC070 46 38     73% 41   29.87 29.88 0    
Jun 11 10:53 SE 8 10 Cloudy OVC080 53 40     61%     29.79 29.8      
Jun 11 09:53 W 5 10 Cloudy OVC080 51 43     74%     29.79 29.79      
Jun 10 08:53 Calm 3 Fog/Mist SCT002 49 49     100%     29.78 29.79      
Notice The following observation data may not be complete
Jun 09 13:21   10 Light Rain FEW004 OVC095          %         0    
Jun 06 09:53 NNE 15 10 Clear CLR 52 44     74%     29.8 29.8      
Jun 05 17:53 N 18 10 Clear CLR 55 45     69%     29.78 29.78      
Jun 05 12:53 Calm 10 Light Rain OVC055 47 44     90%     29.82 29.83 0 0